Location: Friaudour
(46.0460°N, 1.2873°E)
Time: 04:12:33
(UTC+00:00)

CBERS-1 - Pass Details

Date: 14 July 2020
Orbit: 770 x 777 km, 98.6° (Epoch: 06 August)

Event Time Altitude Azimuth Distance (km) Brightness Sun altitude
Rises 02:31:50 0° 11° (NNE) 3,269 8.5 -14.2°
Reaches altitude 10° 02:34:10 10° 9° (N) 2,336 7.5 -13.9°
Maximum altitude 02:39:17 68° 288° (WNW) 838 4.1 -13.4°
Enters shadow 02:43:03 18° 209° (SSW) 1,815 5.3 -13.0°
